DECAYED

METEOR 2-5 DEB, 35254 (Decayed)

Orbit data source: Space-Track

METEOR 2-5 DEB, 35254 was space debris in LEO originally from a launch on Wed, 31 Oct 1979 UTC launched from the Plesetsk Missile And Space Complex (PKMTR). Debris objects in space refer to the collection of defunct objects orbiting the Earth. Examples of debris include non-operational satellites, rocket bodies, and fragments generated from explosions, collisions, or faulty payload assembly.

Not visible in the next 10 days
Identifier
35254, 1979-095V
Orbit
Decayed
Country
Flag of CISCIS
Related business
Manufacturer
Unknown
Mission
Decayed spacecraft
Bus & Motor
Unknown
Mass
Unknown
Launch date (UTC)
1979-10-31 (47 years ago)
Launch vehicle
Unknown
Launch site
Plesetsk Missile And Space Complex (PKMTR)
Object type
Payload
Rocket body
Debris
Shape & HBR
Unknown shape, 0.1 m
Radar Cross Section
Small (<0.1 m²)

Expand to show TLE details & history
Last TLE update: 7 months ago

TLE from 7 months ago
0 METEOR 2-5 DEB
1 35254U 79095V   25266.76251132  .00582778  00000-0  10032-1 0  9991
2 35254  81.1824  77.1480 0005072 310.5547  49.5257 15.48943637636907
Epoch: 2025-09-23T18:18Z
TLE epoch observation values (Epoch: 2025-09-23T18:18:00.978Z)
Latitude
-0.00002°
Longitude
159.79623°
Altitude
420.662 km
Speed
7.66 km/s
True Right ascension
05h 08m 35s
True Declination
0° 00' 00"
Sunlit
Object was in daylight at epoch
Visualization orbit readout
Latitude
Unknown
Longitude
Unknown
Altitude
Unknown
Speed
Unknown
Apparent Right ascension
Unknown
Apparent Declination
Unknown
Sunlit
N/A
Visualization observer readout
Local Sidereal Time
09:36:01
Azimuth
Unknown
Elevation
Unknown
Doppler factor
Unknown
Orbital elements
Apogee altitude
420.256 km
Perigee altitude
413.363 km
Semi-major axis
6,794.946 km
Eccentricity
0.00051
Inclination
81.1824°
RAAN
77.148°
Arg. of periapsis
310.5547°
True anomaly
49.56993°
Mean anomaly
49.5257°
Eccentric anomaly
49.54781°
Mean motion
3.87493 °/min
Orbital period
92.9 mins
BSTAR
0.010032
Loading maneuver chart data...
Computing Atmospheric mass density...
Loading historical data...
Loading historical data...
Loading historical data...
Loading historical data...
Loading historical data...
Loading historical data...
Loading historical data...

Documentation

Showing up to 5 results
|